OneWeb SL0261

operational
NORAD ID: 48979 Int'l Des: 2021-060 Owner: ONEWEBN Country: UK Constellation: oneweb
LEOCIRCULARPOLARONEWEB_TYPE

关于 OneWeb SL0261

正在加载描述...

实时位置

正在加载3D地球...

即将过境

高度历史

Altitude vs Time

uPlot chart will show altitude changes over time

两行轨道根数

1 48979U 21060N 25351.50249030 -.00000005 00000-0 -46815-4 0 9990
2 48979 87.9036 264.9720 0002040 67.1095 293.0251 13.16593194215750
Epoch: Dec 17, 2025 • Age: 10 hours

当前状态

高度 1228.0 km
速度 7.24 km/s
星下点 -87.90°S, 116.85°E
发射日期 Jul 1, 2021
运行时间 4.4 years
类型 internet

技术详情

分类 Payload
质量 148.00 kg
干质量 140.00 kg
总质量 148.00 kg
长度 1.30 m
直径 1.00 m
跨度 5.00 m
形状 Trapezoid+2 pan
制造商 ONEWUS
平台类型 ARROW
阶段状态 In Orbit
所有者/国家 ONEWEBN/UK

大型星座

Loading constellations...